TimeCDT,TemperatureF,Dew PointF,Humidity,Sea Level PressureIn,VisibilityMPH,Wind Direction,Wind SpeedMPH,Gust SpeedMPH,PrecipitationIn,Events,Conditions,WindDirDegrees,DateUTC
12:55 AM,75.9,72.7,90,30.00,10.0,SW,10.4,-,N/A,,Partly Cloudy,220,2012-10-15 05:55:00
1:42 AM,77.0,73.4,89,30.01,10.0,WSW,8.1,-,N/A,,Overcast,240,2012-10-15 06:42:00
1:43 AM,77.0,73.4,89,30.01,10.0,WSW,8.1,-,N/A,,Overcast,240,2012-10-15 06:43:00
1:45 AM,77.0,73.4,89,30.01,10.0,WSW,6.9,-,N/A,,Overcast,240,2012-10-15 06:45:00
1:47 AM,77.0,73.4,89,30.01,10.0,WSW,5.8,-,N/A,,Overcast,250,2012-10-15 06:47:00
1:49 AM,77.0,73.4,89,30.00,10.0,WSW,5.8,-,N/A,,Overcast,250,2012-10-15 06:49:00
1:55 AM,76.6,73.4,90,30.00,10.0,WSW,6.9,-,N/A,,Mostly Cloudy,240,2012-10-15 06:55:00
1:56 AM,77.0,73.4,89,30.00,10.0,WSW,6.9,-,N/A,,Mostly Cloudy,240,2012-10-15 06:56:00
2:01 AM,77.0,73.4,89,30.00,10.0,SW,5.8,-,N/A,,Mostly Cloudy,230,2012-10-15 07:01:00
2:09 AM,77.0,73.4,89,30.00,10.0,WSW,6.9,-,N/A,,Mostly Cloudy,240,2012-10-15 07:09:00
2:10 AM,77.0,73.4,89,30.00,10.0,WSW,5.8,-,N/A,,Mostly Cloudy,240,2012-10-15 07:10:00
2:35 AM,77.0,73.4,89,29.99,10.0,WSW,8.1,-,N/A,,Overcast,250,2012-10-15 07:35:00
2:38 AM,77.0,73.4,89,29.99,10.0,WSW,8.1,-,N/A,,Overcast,240,2012-10-15 07:38:00
2:55 AM,76.3,73.2,90,29.99,10.0,WSW,8.1,-,N/A,,Mostly Cloudy,240,2012-10-15 07:55:00
3:55 AM,75.6,72.7,91,29.97,10.0,West,5.8,-,N/A,,Clear,260,2012-10-15 08:55:00
4:55 AM,75.2,72.7,92,29.97,10.0,Calm,Calm,-,N/A,,Mostly Cloudy,0,2012-10-15 09:55:00
5:55 AM,73.8,71.6,93,29.99,10.0,Calm,Calm,-,N/A,,Mostly Cloudy,0,2012-10-15 10:55:00
6:55 AM,72.5,68.9,88,30.00,10.0,Calm,Calm,-,N/A,,Mostly Cloudy,0,2012-10-15 11:55:00
7:55 AM,71.2,66.9,86,30.00,10.0,Calm,Calm,-,N/A,,Scattered Clouds,0,2012-10-15 12:55:00
8:55 AM,75.2,69.3,82,30.00,10.0,Variable,3.5,-,N/A,,Clear,0,2012-10-15 13:55:00
9:55 AM,76.8,68.5,75,30.01,10.0,NNE,8.1,-,N/A,,Clear,30,2012-10-15 14:55:00
11:55 AM,82.2,66.9,60,29.99,10.0,Variable,4.6,-,N/A,,Clear,0,2012-10-15 16:55:00
12:55 PM,82.0,66.0,58,29.96,10.0,Variable,4.6,-,N/A,,Scattered Clouds,0,2012-10-15 17:55:00
1:55 PM,85.3,63.9,49,29.94,10.0,Variable,4.6,-,N/A,,Clear,0,2012-10-15 18:55:00
2:55 PM,83.8,61.7,47,29.92,10.0,Variable,5.8,-,N/A,,Clear,0,2012-10-15 19:55:00
3:55 PM,83.3,60.4,46,29.91,10.0,NE,9.2,-,N/A,,Clear,40,2012-10-15 20:55:00
4:55 PM,81.1,57.2,44,29.92,10.0,North,9.2,-,N/A,,Clear,10,2012-10-15 21:55:00
5:55 PM,78.3,57.7,49,29.93,10.0,North,11.5,-,N/A,,Clear,10,2012-10-15 22:55:00
6:55 PM,74.5,58.3,57,29.93,10.0,North,8.1,-,N/A,,Clear,10,2012-10-15 23:55:00
7:55 PM,71.6,58.5,63,29.95,10.0,NNE,5.8,-,N/A,,Clear,20,2012-10-16 00:55:00
8:55 PM,69.4,58.3,68,29.96,10.0,North,5.8,-,N/A,,Clear,10,2012-10-16 01:55:00
9:55 PM,68.4,57.7,69,29.98,10.0,North,6.9,-,N/A,,Clear,10,2012-10-16 02:55:00
10:55 PM,66.6,56.8,71,29.99,10.0,NNE,3.5,-,N/A,,Clear,20,2012-10-16 03:55:00
11:55 PM,65.1,55.0,70,29.99,10.0,Calm,Calm,-,N/A,,Clear,0,2012-10-16 04:55:00